This demonstration page uses our WeatherBlox Daily Observations layout. Learn more.

Left ArrowRight Arrow

39.01783, -85.05884

Hourly Observations for September 10, 2021

Temp ( °F °C ) Dew Point ( °F °C ) Humidity (%) Winds ( mph kmh ) Pressure ( in mb ) Visibility ( mi km ) Precip ( " mm )
12:52 am 00:52 Clear 58 14.4 52 11.1 81 81 W 3 6 30.04 1017 10 16 0.00 0.00
1:52 am 01:52 Clear 59 15 53 11.7 81 81 WNW 5 7 30.04 1017 10 16 0.00 0.00
2:52 am 02:52 Mostly Clear 58 14.4 54 12.2 87 87 W 5 7 30.04 1017 10 16 0.00 0.00
3:52 am 03:52 Partly Cloudy 58 14.4 54 12.2 87 87 WNW 3 6 30.05 1018 10 16 0.00 0.00
4:52 am 04:52 Partly Cloudy 57 13.9 53 11.7 87 87 Calm 30.06 1018 10 16 0.00 0.00
5:52 am 05:52 Partly Cloudy 58 14.4 54 12.2 87 87 Calm 30.06 1018 10 16 0.00 0.00
6:52 am 06:52 Mostly Clear 59 15 53 11.7 81 81 N 5 7 30.08 1019 10 16 0.00 0.00
7:52 am 07:52 Sunny 58 14.4 54 12.2 87 87 NNW 5 7 30.10 1019 8 13 0.00 0.00
8:52 am 08:52 Sunny 62 16.7 55 12.8 78 78 Calm 30.11 1020 10 16 0.00 0.00
9:52 am 09:52 Sunny 67 19.4 53 11.7 61 61 NE 3 6 30.12 1020 10 16 0.00 0.00
10:52 am 10:52 Sunny 71 21.7 50 10 47 47 Calm 30.13 1020 10 16 0.00 0.00
11:52 am 11:52 Sunny 73 22.8 48 8.9 41 41 NNW 6 9 30.13 1020 10 16 0.00 0.00
12:52 pm 12:52 Mostly Sunny 75 23.9 49 9.4 40 40 VRB 3 6 30.13 1020 10 16 0.00 0.00
1:52 pm 13:52 Mostly Sunny 76 24.4 49 9.4 39 39 NNW 7 11 30.11 1020 10 16 0.00 0.00
2:52 pm 14:52 Partly Cloudy 77 25 49 9.4 37 37 NW 8 13 30.10 1019 10 16 0.00 0.00
3:52 pm 15:52 Partly Cloudy 75 23.9 50 10 41 41 SSW 3 6 30.09 1019 10 16 0.00 0.00
4:52 pm 16:52 Partly Cloudy 76 24.4 48 8.9 37 37 Calm 30.08 1019 10 16 0.00 0.00
5:52 pm 17:52 Mostly Cloudy 77 25 49 9.4 37 37 N 3 6 30.07 1018 10 16 0.00 0.00
6:52 pm 18:52 Partly Cloudy 75 23.9 51 10.6 43 43 W 6 9 30.06 1018 10 16 0.00 0.00
7:52 pm 19:52 Partly Cloudy 71 21.7 50 10 47 47 SSE 6 9 30.06 1018 10 16 0.00 0.00
8:52 pm 20:52 Partly Cloudy 67 19.4 50 10 55 55 S 5 7 30.07 1018 10 16 0.00 0.00
9:52 pm 21:52 Partly Cloudy 65 18.3 51 10.6 61 61 S 6 9 30.09 1019 10 16 0.00 0.00
10:52 pm 22:52 Mostly Clear 64 17.8 52 11.1 65 65 S 5 7 30.10 1019 10 16 0.00 0.00
11:52 pm 23:52 Partly Cloudy 64 17.8 51 10.6 63 63 S 5 7 30.11 1020 10 16 0.00 0.00

Powered by AerisWeather